Location: Mohawk View
(42.7837°N, 73.7885°W)
Time: 16:18:21
(UTC+00:00)

Meteor 1-24 Rocket - Pass Details

Date: 17 June 2021
Orbit: 791 x 927 km, 81.3° (Epoch: 01 August)

Event Time Altitude Azimuth Distance (km) Brightness Sun altitude
Exits shadow 02:37:29 25° 127° (SE) 1,555 4.5 -16.5°
Maximum altitude 02:39:23 32° 90° (E) 1,346 4.5 -16.7°
Drops below altitude 10° 02:44:09 10° 29° (NNE) 2,415 6.5 -17.2°
Sets 02:46:47 0° 20° (NNE) 3,371 7.4 -17.4°
